Wind_Speed
20 20 17 15 13 12 10 8 7 4 2 4 7 9 7 2 3 4 4 5 5 6 7 8 8 9 8 8 8 8 7 6 5 5 5 5 4 4 4 4 5 5
19 20 19 17 15 13 11 10 8 5 2 4 7 7 5 2 5 6 6 6 7 7 8 9 10 10 9 10 10 9 9 8 8 7 7 6 6 6 5 5 4 4
20 20 20 18 16 14 13 11 8 4 2 4 5 5 5 4 6 7 7 8 8 8 9 10 10 10 11 11 11 10 10 10 10 10 9 9 8 9 8 8 6 5
21 19 18 19 18 16 14 11 8 3 1 3 4 4 5 5 6 7 8 9 8 8 8 9 10 10 10 11 11 11 11 11 11 11 10 9 9 9 10 10 9 8
21 18 18 19 19 17 14 12 8 3 1 2 3 4 5 6 5 6 7 8 8 8 8 8 8 8 8 9 9 9 9 9 9 9 9 8 9 9 9 9 9 9
23 20 19 20 19 18 16 13 7 3 2 1 1 2 3 6 5 5 6 7 8 7 6 6 6 5 5 6 6 6 7 7 6 6 6 5 5 6 6 7 6 7
24 21 21 21 21 20 17 13 8 5 4 3 2 1 1 4 5 4 6 6 6 6 6 5 3 3 3 2 2 3 3 3 3 3 3 3 3 3 4 4 3 3
25 23 23 23 22 21 16 11 8 6 6 5 4 4 2 1 3 4 5 5 5 5 5 4 2 1 1 1 2 2 2 2 3 3 3 3 3 3 4 4 4 3
27 27 27 25 23 20 16 15 14 11 8 7 7 6 4 2 1 2 4 5 5 5 5 5 4 4 4 4 5 6 6 7 6 6 6 5 4 3 3 4 4 5
30 29 28 29 27 24 22 20 19 15 11 10 10 8 7 5 4 4 4 5 6 7 7 6 6 7 7 8 9 9 8 8 7 8 9 9 8 7 6 6 5 6
23 24 25 26 25 25 24 21 17 14 13 12 12 10 9 8 7 7 7 8 9 8 7 7 8 9 10 12 11 9 7 7 7 8 9 10 10 9 8 8 8 9
13 15 16 16 16 16 16 16 15 14 14 14 14 13 13 11 10 10 11 11 11 9 8 9 9 10 10 11 11 9 7 7 7 8 9 10 11 10 9 9 10 10
10 11 11 11 12 13 14 15 15 14 14 15 15 15 15 14 13 13 14 13 11 10 9 9 10 9 9 10 9 8 7 7 8 9 10 11 11 11 10 9 10 11
11 12 14 15 14 13 15 17 16 13 12 12 14 15 15 14 13 14 14 13 12 11 11 10 9 9 10 11 10 9 8 8 8 10 11 11 11 11 10 9 10 11
12 12 14 15 13 12 15 16 15 13 12 12 13 14 14 14 13 13 13 12 12 12 12 12 11 10 11 12 11 11 11 11 11 12 13 14 13 12 12 11 10 10
10 10 11 11 10 11 12 12 13 13 12 12 12 12 12 13 12 13 13 12 12 12 12 12 12 12 12 13 13 13 12 13 14 14 15 15 14 12 12 11 10 10
9 11 12 10 9 9 10 9 11 13 13 13 12 11 12 12 11 11 13 14 14 14 14 14 14 13 14 15 16 15 14 13 14 15 15 14 13 12 11 10 10 10
9 9 11 11 10 9 9 10 13 15 15 14 14 13 13 12 11 11 13 14 15 16 15 15 16 16 16 17 17 17 16 15 16 16 15 13 12 11 11 11 11 11
9 10 11 12 11 9 9 9 11 13 12 12 13 14 14 13 12 12 13 14 14 14 14 15 16 16 17 16 16 17 16 15 15 15 14 13 13 12 12 13 13 13
9 11 13 12 10 8 7 7 8 8 9 10 11 13 14 14 13 13 14 14 13 12 11 12 12 13 13 13 14 16 16 15 15 15 14 14 14 13 14 14 13 13
8 10 11 11 10 8 8 8 8 8 8 9 10 12 13 13 13 14 15 14 13 11 11 11 11 11 12 12 13 13 14 15 16 16 16 15 14 14 15 15 15 14
6 5 6 8 8 8 7 7 7 8 8 8 9 10 11 12 13 14 14 13 12 12 11 11 11 11 11 11 11 12 13 15 17 18 17 16 15 15 16 16 16 15
8 6 6 6 6 6 6 6 7 8 9 9 10 10 11 12 13 13 13 13 13 12 12 11 11 10 10 10 10 11 14 16 19 19 18 18 17 17 17 18 18 17
12 11 9 7 6 6 7 7 8 8 9 9 10 12 13 14 14 14 13 12 12 12 12 11 11 11 12 12 13 14 16 18 20 20 20 19 19 19 20 20 20 19
11 10 9 8 8 8 8 9 10 11 11 11 12 13 13 15 16 16 15 14 14 13 13 13 13 13 13 15 16 17 18 19 21 22 21 21 21 22 23 23 22 21
9 9 9 10 10 11 12 12 14 15 16 16 16 15 15 17 18 19 18 17 16 15 14 15 15 15 15 15 17 18 20 21 23 23 23 24 25 25 25 25 24 23
Wind_Direction
217 218 222 226 221 212 203 197 197 203 243 316 342 354 3 10 157 131 106 103 98 92 90 88 88 86 83 83 83 82 82 86 93 101 111 116 119 122 125 131 140 142
218 219 223 226 223 216 207 201 201 208 252 330 351 9 30 106 149 131 116 111 102 96 93 90 89 86 84 82 79 79 81 81 84 88 92 97 102 108 112 116 125 135
225 226 226 226 225 218 208 201 199 205 281 351 16 44 63 109 144 135 119 113 105 100 98 93 90 88 85 82 78 77 77 76 78 80 82 86 92 97 100 101 103 114
231 230 224 223 223 216 207 203 205 206 10 23 43 71 81 101 138 140 121 112 104 99 97 94 93 93 90 87 83 79 75 73 73 74 75 79 84 90 95 98 100 102
232 228 222 221 218 210 205 204 203 194 97 70 63 76 79 87 123 144 131 116 106 99 97 95 95 95 95 93 90 87 83 78 76 75 74 73 77 83 88 93 100 103
225 223 221 218 212 206 204 204 197 177 157 137 96 88 75 74 99 138 144 131 119 111 105 100 98 97 100 101 96 95 92 85 82 83 84 82 85 88 86 89 97 103
221 218 216 214 208 205 204 203 200 191 186 187 196 214 84 71 86 125 149 150 143 138 135 127 117 108 110 113 110 109 105 97 91 96 106 114 127 129 122 122 120 109
218 212 210 207 202 203 203 201 204 199 191 204 220 224 217 74 86 124 150 165 168 169 170 168 166 165 184 228 228 229 228 210 195 195 191 182 185 182 166 171 187 189
212 208 206 201 198 206 211 214 225 220 201 211 224 222 226 243 187 157 166 179 186 198 202 195 203 221 236 249 251 250 249 246 244 248 255 253 243 236 220 207 212 219
213 209 208 204 206 218 223 226 235 226 203 210 220 221 233 247 249 227 204 204 210 216 222 225 237 248 250 248 247 250 260 274 282 283 283 277 267 261 259 257 257 257
221 218 220 218 222 231 231 229 229 211 199 214 219 221 236 243 244 241 233 232 234 239 252 260 267 271 263 250 246 249 263 281 285 280 279 276 271 270 268 266 261 256
216 217 222 225 226 227 218 212 211 203 204 216 216 219 232 237 237 239 241 247 253 263 273 274 276 278 265 251 252 256 262 269 270 270 269 267 269 274 275 272 265 255
199 202 201 198 197 199 193 192 205 213 213 216 219 224 234 242 246 248 252 260 267 273 278 281 281 278 266 258 257 259 264 268 268 267 264 262 266 270 273 273 268 259
207 204 207 202 193 199 202 198 204 216 219 222 227 231 240 251 255 257 260 266 270 272 273 274 270 262 262 266 265 264 267 267 265 267 271 273 272 269 269 265 257 250
211 208 219 216 200 201 208 205 208 217 222 228 232 234 241 248 251 255 257 258 260 262 261 263 265 262 260 264 269 273 274 269 268 272 277 281 278 269 263 255 245 237
215 212 221 220 206 210 219 216 214 216 217 224 233 238 241 244 249 254 255 252 251 252 254 261 268 268 262 262 268 277 281 277 272 273 275 278 277 268 256 243 232 222
218 213 210 207 205 217 229 221 211 212 215 222 230 240 245 248 252 256 254 251 248 249 254 260 264 266 265 265 270 275 278 277 275 277 279 275 266 255 244 233 222 212
203 197 197 198 200 207 210 206 207 211 215 222 232 240 247 250 252 253 251 249 248 251 256 260 262 265 267 269 272 274 274 272 274 279 280 271 256 241 228 222 215 210
197 191 194 200 206 204 197 204 214 213 210 219 232 240 247 252 253 254 252 251 253 257 260 262 264 266 268 269 272 275 276 275 273 270 265 256 246 234 224 221 219 219
187 185 189 198 208 209 206 216 222 215 215 226 236 242 249 254 253 252 253 255 258 261 262 261 263 267 271 272 274 277 278 276 270 263 256 250 242 233 229 228 227 227
190 180 177 185 199 210 213 214 214 217 226 235 242 247 252 256 254 253 254 255 255 254 255 258 264 270 273 274 275 275 274 269 264 259 254 250 242 235 236 238 236 234
215 215 182 175 186 200 207 211 221 235 246 251 253 252 252 255 257 257 257 257 255 254 256 261 268 271 273 274 273 270 266 262 261 261 257 253 249 246 247 249 248 242
196 207 202 184 180 191 210 226 241 253 261 264 260 255 257 259 257 255 254 255 257 259 260 262 266 270 274 275 269 264 262 260 263 266 264 260 259 256 256 258 261 258
202 200 205 205 195 202 228 246 255 258 258 258 258 259 260 260 256 252 251 253 255 258 260 264 271 276 277 273 264 260 260 261 264 268 267 263 260 259 258 259 262 261
216 212 218 224 223 228 239 248 254 257 257 258 259 256 254 253 254 253 252 251 252 257 265 271 276 278 276 272 266 262 262 263 265 268 267 261 257 257 259 259 259 257
237 239 249 255 258 259 259 260 262 265 266 265 262 258 254 255 258 260 262 261 258 259 265 270 275 277 273 268 264 262 261 261 263 266 266 261 258 258 258 258 259 259
Height
3135 3137 3138 3138 3139 3139 3140 3141 3143 3144 3144 3145 3145 3145 3146 3146 3147 3147 3147 3147 3148 3148 3148 3148 3149 3149 3149 3150 3150 3151 3152 3153 3153 3154 3154 3154 3154 3154 3154 3155 3155 3155
3134 3136 3137 3138 3138 3139 3139 3140 3142 3143 3143 3144 3144 3145 3145 3146 3146 3147 3147 3148 3148 3149 3149 3149 3150 3150 3150 3151 3151 3152 3153 3154 3154 3154 3155 3155 3155 3155 3155 3155 3155 3155
3133 3134 3136 3137 3137 3138 3139 3139 3141 3142 3143 3143 3144 3144 3145 3145 3146 3147 3147 3148 3149 3149 3150 3150 3151 3151 3151 3152 3152 3153 3154 3154 3155 3155 3156 3156 3155 3155 3155 3155 3155 3155
3131 3132 3134 3135 3136 3137 3138 3138 3140 3141 3142 3143 3143 3144 3145 3146 3146 3147 3148 3149 3149 3150 3151 3151 3151 3152 3152 3153 3153 3154 3154 3155 3156 3156 3157 3157 3156 3156 3156 3156 3156 3156
3129 3130 3132 3134 3135 3136 3137 3138 3139 3140 3141 3142 3143 3144 3145 3146 3146 3147 3148 3149 3149 3150 3151 3151 3152 3153 3153 3153 3154 3154 3155 3156 3156 3157 3158 3157 3157 3157 3157 3156 3156 3156
3127 3129 3130 3132 3134 3135 3135 3136 3138 3139 3140 3141 3142 3144 3144 3145 3146 3147 3147 3148 3149 3150 3151 3151 3152 3153 3153 3153 3154 3154 3155 3156 3156 3157 3157 3158 3157 3157 3157 3157 3157 3157
3125 3127 3129 3131 3132 3133 3134 3135 3137 3138 3139 3141 3142 3143 3144 3145 3145 3146 3146 3147 3148 3149 3150 3151 3152 3152 3153 3153 3154 3154 3155 3155 3156 3156 3157 3157 3157 3157 3157 3157 3157 3157
3124 3126 3128 3130 3131 3131 3132 3134 3136 3137 3139 3140 3141 3142 3143 3144 3144 3144 3145 3146 3147 3148 3149 3150 3151 3152 3152 3153 3153 3153 3153 3154 3154 3154 3155 3155 3155 3156 3156 3156 3156 3156
3121 3123 3125 3128 3129 3130 3132 3133 3135 3136 3138 3139 3140 3141 3142 3143 3143 3143 3144 3145 3146 3146 3147 3149 3149 3150 3151 3152 3152 3151 3151 3152 3153 3153 3154 3154 3154 3155 3155 3156 3156 3156
3119 3121 3123 3126 3127 3129 3130 3132 3133 3135 3136 3138 3139 3140 3141 3142 3142 3142 3143 3143 3144 3144 3146 3147 3148 3149 3150 3150 3149 3150 3150 3151 3152 3153 3153 3153 3153 3153 3154 3154 3155 3155
3118 3120 3123 3125 3126 3127 3128 3130 3132 3133 3134 3136 3138 3139 3140 3140 3140 3141 3141 3141 3142 3143 3145 3147 3148 3148 3148 3148 3148 3149 3150 3151 3151 3151 3151 3151 3151 3151 3152 3152 3152 3152
3116 3118 3121 3123 3124 3124 3125 3128 3130 3131 3133 3135 3136 3137 3138 3138 3139 3139 3139 3139 3140 3143 3144 3145 3146 3146 3146 3146 3147 3148 3148 3149 3149 3149 3149 3149 3149 3149 3149 3149 3149 3149
3115 3117 3119 3120 3121 3122 3124 3127 3129 3131 3133 3134 3135 3136 3136 3137 3137 3137 3137 3138 3140 3142 3143 3143 3144 3144 3144 3145 3146 3146 3146 3146 3147 3147 3147 3147 3148 3147 3147 3147 3147 3147
3115 3116 3116 3117 3118 3120 3123 3125 3127 3130 3132 3132 3134 3135 3135 3135 3135 3135 3136 3137 3139 3140 3141 3142 3142 3142 3143 3143 3144 3144 3144 3144 3145 3145 3145 3145 3146 3145 3146 3145 3145 3145
3114 3115 3115 3116 3118 3119 3121 3124 3127 3129 3130 3131 3132 3133 3133 3133 3133 3134 3135 3136 3137 3139 3139 3140 3140 3140 3140 3141 3141 3141 3142 3142 3142 3142 3142 3142 3143 3143 3144 3143 3142 3142
3113 3114 3114 3117 3119 3120 3121 3124 3127 3128 3129 3130 3130 3130 3131 3131 3132 3132 3133 3134 3135 3136 3137 3138 3138 3138 3138 3138 3138 3139 3139 3139 3139 3139 3139 3139 3140 3141 3141 3140 3140 3141
3113 3114 3115 3117 3119 3120 3122 3124 3125 3126 3127 3127 3128 3129 3129 3129 3130 3131 3131 3132 3133 3134 3135 3136 3136 3136 3136 3136 3136 3136 3137 3137 3136 3136 3136 3137 3137 3138 3138 3138 3138 3139
3112 3114 3115 3116 3118 3120 3121 3122 3123 3124 3125 3126 3127 3127 3128 3128 3128 3128 3129 3130 3131 3132 3133 3133 3133 3133 3133 3133 3133 3133 3134 3134 3134 3133 3133 3134 3135 3135 3135 3136 3137 3137
3111 3113 3114 3115 3117 3118 3119 3120 3121 3123 3124 3125 3125 3126 3126 3126 3126 3126 3127 3128 3129 3129 3130 3130 3130 3130 3130 3130 3130 3130 3131 3131 3131 3131 3131 3132 3132 3133 3133 3134 3135 3135
3111 3113 3114 3115 3116 3116 3117 3118 3119 3120 3122 3123 3123 3124 3125 3124 3124 3124 3125 3125 3126 3126 3127 3127 3127 3127 3127 3128 3128 3128 3128 3128 3128 3129 3129 3129 3130 3131 3132 3132 3133 3133
3110 3112 3114 3115 3115 3115 3116 3117 3117 3119 3120 3121 3122 3123 3123 3122 3122 3122 3123 3123 3124 3124 3124 3124 3124 3125 3125 3125 3126 3126 3126 3126 3126 3126 3127 3127 3128 3129 3130 3130 3131 3132
3107 3109 3110 3112 3113 3114 3114 3115 3116 3117 3118 3118 3119 3120 3120 3120 3120 3121 3121 3122 3122 3122 3122 3122 3122 3122 3123 3123 3123 3124 3124 3124 3124 3124 3125 3126 3126 3127 3127 3128 3128 3129
3105 3106 3107 3108 3109 3110 3111 3112 3113 3113 3114 3114 3115 3116 3116 3117 3118 3119 3119 3120 3120 3120 3120 3120 3120 3120 3120 3121 3121 3122 3122 3122 3122 3123 3123 3124 3124 3124 3124 3124 3125 3126
3102 3104 3105 3106 3107 3108 3108 3109 3110 3110 3111 3112 3113 3113 3114 3115 3115 3116 3117 3118 3118 3118 3118 3118 3118 3118 3118 3119 3119 3119 3120 3120 3119 3120 3121 3121 3121 3121 3121 3121 3121 3122
3101 3102 3103 3104 3105 3106 3106 3107 3108 3108 3109 3110 3111 3111 3112 3112 3113 3114 3114 3115 3115 3116 3116 3116 3116 3116 3116 3116 3116 3116 3117 3117 3116 3117 3118 3118 3118 3118 3118 3118 3119 3120
3100 3101 3101 3102 3102 3103 3103 3104 3105 3106 3106 3107 3108 3108 3109 3109 3109 3109 3110 3111 3112 3113 3113 3113 3113 3114 3114 3114 3114 3114 3114 3113 3113 3114 3115 3115 3115 3116 3116 3117 3117 3117